Location: Boursonne
(49.2024°N, 3.0468°E)
Time: 11:13:27
(UTC+00:00)

Cosmos 1898 Rocket - Pass Details

Date: 03 March 2021
Orbit: 753 x 784 km, 74.0° (Epoch: 10 April)

Event Time Altitude Azimuth Distance (km) Brightness Sun altitude
Rises 19:51:20 0° 341° (NNW) 3,228 7.2 -22.9°
Reaches altitude 10° 19:53:56 10° 351° (N) 2,303 6.3 -23.3°
Enters shadow 19:57:55 32° 38° (NE) 1,290 4.5 -24.0°
